Location: *
(51.0333°S, 178.4667°E)
Time: 11:22:10
(UTC+00:00)

Envisat - Pass Details

Date: 25 January 2020
Orbit: 764 x 766 km, 98.1° (Epoch: 25 February)

Event Time Altitude Azimuth Distance (km) Brightness Sun altitude
Rises 08:38:34 0° 176° (S) 3,279 6.8 -5.0°
Reaches altitude 10° 08:41:30 10° 193° (SSW) 2,345 6.4 -5.4°
Maximum altitude 08:45:00 19° 235° (SW) 1,803 6.4 -5.8°
Drops below altitude 10° 08:48:30 10° 278° (W) 2,329 6.1 -6.2°
Sets 08:51:25 0° 296° (WNW) 3,248 6.6 -6.6°
